Time,TemperatureF,DewpointF,PressureIn,WindDirection,WindDirectionDegrees,WindSpeedMPH,WindSpeedGustMPH,Humidity,HourlyPrecipIn,Conditions,Clouds,dailyrainin,SoftwareType,DateUTC
2013-05-07 00:00:00,61.9,53.9,30.01,NE,47,2.0,2.0,75,0.00,,,0.00,Wunderground v.1.15,2013-05-07 04:00:00,
2013-05-07 00:05:00,61.8,53.8,30.01,NNE,25,2.0,4.0,75,0.00,,,0.00,Wunderground v.1.15,2013-05-07 04:05:00,
2013-05-07 02:15:00,59.7,53.9,29.99,ENE,68,1.0,5.0,81,0.00,,,0.00,Wunderground v.1.15,2013-05-07 06:15:00,
2013-05-07 02:20:00,59.8,54.0,30.00,NE,36,1.0,5.0,81,0.00,,,0.00,Wunderground v.1.15,2013-05-07 06:20:00,
2013-05-07 02:30:00,59.7,54.2,29.99,NNE,29,2.0,5.0,82,0.00,,,0.00,Wunderground v.1.15,2013-05-07 06:30:00,
2013-05-07 02:35:00,59.7,54.2,29.99,NNE,32,1.0,5.0,82,0.00,,,0.00,Wunderground v.1.15,2013-05-07 06:35:00,
2013-05-07 02:45:00,59.6,54.1,29.99,NE,40,1.0,5.0,82,0.00,,,0.00,Wunderground v.1.15,2013-05-07 06:45:00,
2013-05-07 02:50:00,59.6,54.1,29.99,NE,34,2.0,5.0,82,0.00,,,0.00,Wunderground v.1.15,2013-05-07 06:50:00,
2013-05-07 02:55:00,59.5,54.0,29.99,East,90,2.0,2.0,82,0.00,,,0.00,Wunderground v.1.15,2013-05-07 06:55:00,
2013-05-07 03:00:00,59.4,54.2,29.99,NE,36,1.0,2.0,83,0.00,,,0.00,Wunderground v.1.15,2013-05-07 07:00:00,
2013-05-07 03:10:00,59.4,54.2,29.99,NNE,25,2.0,2.0,83,0.00,,,0.00,Wunderground v.1.15,2013-05-07 07:10:00,
2013-05-07 03:15:00,59.3,54.1,29.99,NNE,13,1.0,2.0,83,0.00,,,0.00,Wunderground v.1.15,2013-05-07 07:15:00,
2013-05-07 03:20:00,59.2,54.0,29.99,NNE,12,1.0,1.0,83,0.00,,,0.00,Wunderground v.1.15,2013-05-07 07:20:00,
2013-05-07 03:30:00,59.2,54.0,29.99,NE,53,1.0,1.0,83,0.00,,,0.00,Wunderground v.1.15,2013-05-07 07:30:00,
2013-05-07 03:35:00,59.1,53.9,29.99,East,79,1.0,1.0,83,0.00,,,0.00,Wunderground v.1.15,2013-05-07 07:35:00,
2013-05-07 03:40:00,59.1,54.3,29.99,East,89,1.0,1.0,84,0.00,,,0.00,Wunderground v.1.15,2013-05-07 07:40:00,
2013-05-07 03:45:00,59.1,54.3,29.99,ENE,62,1.0,2.0,84,0.00,,,0.00,Wunderground v.1.15,2013-05-07 07:45:00,
2013-05-07 03:50:00,59.1,54.3,29.99,NNE,16,1.0,1.0,84,0.00,,,0.00,Wunderground v.1.15,2013-05-07 07:50:00,
2013-05-07 03:55:00,59.1,54.3,29.99,NE,49,1.0,2.0,84,0.00,,,0.00,Wunderground v.1.15,2013-05-07 07:55:00,
2013-05-07 04:00:00,59.1,54.3,29.99,NNE,19,1.0,1.0,84,0.00,,,0.00,Wunderground v.1.15,2013-05-07 08:00:00,
2013-05-07 04:10:00,59.1,54.3,29.99,NE,53,2.0,2.0,84,0.00,,,0.00,Wunderground v.1.15,2013-05-07 08:10:00,
2013-05-07 04:15:00,59.1,54.3,29.99,NNE,32,1.0,2.0,84,0.00,,,0.00,Wunderground v.1.15,2013-05-07 08:15:00,
2013-05-07 04:20:00,59.0,54.2,29.99,NNE,25,1.0,1.0,84,0.00,,,0.00,Wunderground v.1.15,2013-05-07 08:20:00,
2013-05-07 04:25:00,59.0,54.2,29.99,NNE,25,0.0,1.0,84,0.00,,,0.00,Wunderground v.1.15,2013-05-07 08:25:00,
2013-05-07 04:35:00,59.0,53.8,29.99,NNE,20,1.0,4.0,83,0.00,,,0.00,Wunderground v.1.15,2013-05-07 08:35:00,
2013-05-07 04:40:00,59.0,53.8,29.99,North,11,1.0,1.0,83,0.00,,,0.00,Wunderground v.1.15,2013-05-07 08:40:00,
2013-05-07 04:45:00,59.0,53.8,29.99,NE,51,1.0,1.0,83,0.00,,,0.00,Wunderground v.1.15,2013-05-07 08:45:00,
2013-05-07 04:50:00,59.0,53.8,29.99,NE,34,2.0,2.0,83,0.00,,,0.00,Wunderground v.1.15,2013-05-07 08:50:00,
2013-05-07 04:55:00,59.0,53.8,29.99,NNE,20,2.0,2.0,83,0.00,,,0.00,Wunderground v.1.15,2013-05-07 08:55:00,
2013-05-07 05:00:00,58.9,53.7,29.99,NNE,27,1.0,3.0,83,0.00,,,0.00,Wunderground v.1.15,2013-05-07 09:00:00,
2013-05-07 05:10:00,58.7,53.9,29.99,NE,34,2.0,2.0,84,0.00,,,0.00,Wunderground v.1.15,2013-05-07 09:10:00,
2013-05-07 05:20:00,58.2,53.4,29.98,NNE,20,1.0,2.0,84,0.00,,,0.00,Wunderground v.1.15,2013-05-07 09:20:00,
2013-05-07 05:30:00,57.6,53.1,29.98,NE,49,1.0,1.0,85,0.00,,,0.00,Wunderground v.1.15,2013-05-07 09:30:00,
2013-05-07 05:35:00,57.4,52.9,29.99,North,9,1.0,1.0,85,0.00,,,0.00,Wunderground v.1.15,2013-05-07 09:35:00,
2013-05-07 05:40:00,57.0,52.9,29.98,North,9,0.0,0.0,86,0.00,,,0.00,Wunderground v.1.15,2013-05-07 09:40:00,
2013-05-07 05:45:00,56.6,52.5,29.99,North,9,0.0,0.0,86,0.00,,,0.00,Wunderground v.1.15,2013-05-07 09:45:00,
2013-05-07 05:50:00,56.2,52.1,29.99,North,9,1.0,1.0,86,0.00,,,0.00,Wunderground v.1.15,2013-05-07 09:50:00,
2013-05-07 05:55:00,55.9,52.4,29.99,NNE,18,0.0,2.0,88,0.00,,,0.00,Wunderground v.1.15,2013-05-07 09:55:00,
2013-05-07 06:00:00,55.9,52.4,29.98,NNE,22,1.0,1.0,88,0.00,,,0.00,Wunderground v.1.15,2013-05-07 10:00:00,
2013-05-07 06:10:00,56.3,53.1,29.99,North,10,1.0,1.0,89,0.00,,,0.00,Wunderground v.1.15,2013-05-07 10:10:00,
2013-05-07 06:15:00,56.5,53.0,29.99,North,9,1.0,1.0,88,0.00,,,0.00,Wunderground v.1.15,2013-05-07 10:15:00,
2013-05-07 06:20:00,56.6,53.1,29.99,North,9,1.0,1.0,88,0.00,,,0.00,Wunderground v.1.15,2013-05-07 10:20:00,
2013-05-07 06:25:00,56.8,53.3,29.99,North,9,0.0,1.0,88,0.00,,,0.00,Wunderground v.1.15,2013-05-07 10:25:00,
2013-05-07 06:30:00,56.8,53.3,29.99,NNE,31,0.0,4.0,88,0.00,,,0.00,Wunderground v.1.15,2013-05-07 10:30:00,
2013-05-07 06:40:00,57.0,53.2,30.00,NE,34,1.0,1.0,87,0.00,,,0.00,Wunderground v.1.15,2013-05-07 10:40:00,
2013-05-07 06:50:00,57.2,53.7,30.00,NNE,19,2.0,3.0,88,0.00,,,0.00,Wunderground v.1.15,2013-05-07 10:50:00,
2013-05-07 06:55:00,57.3,53.5,30.00,NNE,25,2.0,3.0,87,0.00,,,0.00,Wunderground v.1.15,2013-05-07 10:55:00,
2013-05-07 07:00:00,57.5,53.7,30.00,NNE,19,2.0,3.0,87,0.00,,,0.00,Wunderground v.1.15,2013-05-07 11:00:00,
2013-05-07 07:10:00,57.9,53.7,30.00,NNE,19,3.0,6.0,86,0.00,,,0.00,Wunderground v.1.15,2013-05-07 11:10:00,
2013-05-07 07:15:00,58.1,53.9,30.00,NNE,23,3.0,6.0,86,0.00,,,0.00,Wunderground v.1.15,2013-05-07 11:15:00,
2013-05-07 07:25:00,58.3,54.1,30.00,NNE,20,3.0,3.0,86,0.00,,,0.00,Wunderground v.1.15,2013-05-07 11:25:00,
2013-05-07 07:30:00,58.4,53.9,30.00,NE,50,3.0,3.0,85,0.00,,,0.00,Wunderground v.1.15,2013-05-07 11:30:00,
2013-05-07 07:35:00,58.6,54.1,30.00,NNE,22,3.0,3.0,85,0.00,,,0.00,Wunderground v.1.15,2013-05-07 11:35:00,
2013-05-07 07:40:00,58.8,54.3,30.00,NNE,16,3.0,4.0,85,0.00,,,0.00,Wunderground v.1.15,2013-05-07 11:40:00,
2013-05-07 07:45:00,59.0,54.5,30.00,NNE,19,2.0,4.0,85,0.00,,,0.00,Wunderground v.1.15,2013-05-07 11:45:00,
2013-05-07 07:50:00,59.1,54.3,30.00,ENE,70,2.0,2.0,84,0.00,,,0.00,Wunderground v.1.15,2013-05-07 11:50:00,
2013-05-07 08:00:00,59.3,54.5,30.00,SE,124,2.0,5.0,84,0.00,,,0.00,Wunderground v.1.15,2013-05-07 12:00:00,
2013-05-07 08:10:00,59.6,54.8,30.00,East,96,2.0,2.0,84,0.00,,,0.00,Wunderground v.1.15,2013-05-07 12:10:00,
2013-05-07 08:15:00,59.7,54.9,30.00,NNE,30,2.0,2.0,84,0.00,,,0.00,Wunderground v.1.15,2013-05-07 12:15:00,
2013-05-07 08:20:00,59.9,54.7,30.00,NE,56,2.0,2.0,83,0.00,,,0.00,Wunderground v.1.15,2013-05-07 12:20:00,
2013-05-07 08:25:00,60.0,54.8,30.00,NNE,31,2.0,2.0,83,0.00,,,0.00,Wunderground v.1.15,2013-05-07 12:25:00,
2013-05-07 08:30:00,60.1,55.2,30.01,ESE,110,2.0,4.0,84,0.00,,,0.00,Wunderground v.1.15,2013-05-07 12:30:00,
2013-05-07 08:35:00,60.4,55.5,30.01,NNE,18,3.0,4.0,84,0.00,,,0.00,Wunderground v.1.15,2013-05-07 12:35:00,
2013-05-07 08:45:00,60.5,55.3,30.01,ESE,113,4.0,4.0,83,0.00,,,0.00,Wunderground v.1.15,2013-05-07 12:45:00,
2013-05-07 08:50:00,60.8,55.3,30.01,NNE,16,3.0,4.0,82,0.00,,,0.00,Wunderground v.1.15,2013-05-07 12:50:00,
2013-05-07 08:55:00,61.4,55.9,30.01,NNE,16,3.0,4.0,82,0.00,,,0.00,Wunderground v.1.15,2013-05-07 12:55:00,
2013-05-07 09:00:00,61.5,55.6,30.01,NE,40,3.0,3.0,81,0.00,,,0.00,Wunderground v.1.15,2013-05-07 13:00:00,
2013-05-07 09:10:00,61.7,55.8,30.02,NNE,19,2.0,2.0,81,0.00,,,0.00,Wunderground v.1.15,2013-05-07 13:10:00,
2013-05-07 09:20:00,61.9,56.0,30.02,NE,40,3.0,4.0,81,0.00,,,0.00,Wunderground v.1.15,2013-05-07 13:20:00,
2013-05-07 09:25:00,62.0,56.1,30.02,NNE,27,3.0,4.0,81,0.00,,,0.00,Wunderground v.1.15,2013-05-07 13:25:00,
2013-05-07 09:30:00,62.1,55.9,30.02,East,89,2.0,2.0,80,0.00,,,0.00,Wunderground v.1.15,2013-05-07 13:30:00,
2013-05-07 09:35:00,62.2,56.3,30.02,NNE,23,2.0,-999.0,81,0.00,,,0.00,Wunderground v.1.15,2013-05-07 13:35:00,
2013-05-07 09:40:00,62.4,56.1,30.02,ESE,113,2.0,-999.0,80,0.00,,,0.00,Wunderground v.1.15,2013-05-07 13:40:00,
2013-05-07 09:45:00,62.7,56.8,30.02,NNE,23,1.0,-999.0,81,0.00,,,0.00,Wunderground v.1.15,2013-05-07 13:45:00,
2013-05-07 09:50:00,62.8,56.9,30.02,NE,45,2.0,-999.0,81,0.00,,,0.00,Wunderground v.1.15,2013-05-07 13:50:00,
2013-05-07 09:55:00,62.8,56.5,30.02,NE,45,3.0,-999.0,80,0.00,,,0.00,Wunderground v.1.15,2013-05-07 13:55:00,
2013-05-07 10:00:00,62.8,56.5,30.02,ESE,113,2.0,-999.0,80,0.00,,,0.00,Wunderground v.1.15,2013-05-07 14:00:00,
2013-05-07 10:05:00,63.0,56.7,30.02,NE,45,3.0,-999.0,80,0.00,,,0.00,Wunderground v.1.15,2013-05-07 14:05:00,
2013-05-07 10:10:00,63.2,56.9,30.02,East,90,2.0,-999.0,80,0.00,,,0.00,Wunderground v.1.15,2013-05-07 14:10:00,
2013-05-07 10:15:00,63.3,57.0,30.02,NE,45,5.0,-999.0,80,0.00,,,0.00,Wunderground v.1.15,2013-05-07 14:15:00,
2013-05-07 10:20:00,63.1,56.8,30.02,NNE,23,4.0,-999.0,80,0.00,,,0.00,Wunderground v.1.15,2013-05-07 14:20:00,
2013-05-07 10:25:00,63.2,57.3,30.02,NNE,23,2.0,-999.0,81,0.00,,,0.00,Wunderground v.1.15,2013-05-07 14:25:00,
2013-05-07 10:30:00,63.7,57.4,30.02,ENE,68,2.0,-999.0,80,0.00,,,0.00,Wunderground v.1.15,2013-05-07 14:30:00,
2013-05-07 10:35:00,63.9,56.9,30.02,NNE,23,3.0,-999.0,78,0.00,,,0.00,Wunderground v.1.15,2013-05-07 14:35:00,
2013-05-07 10:40:00,63.8,56.8,30.02,NNE,23,4.0,-999.0,78,0.00,,,0.00,Wunderground v.1.15,2013-05-07 14:40:00,
2013-05-07 10:45:00,63.7,57.1,30.02,NE,45,3.0,-999.0,79,0.00,,,0.00,Wunderground v.1.15,2013-05-07 14:45:00,
2013-05-07 10:50:00,64.0,57.0,30.02,NE,45,4.0,-999.0,78,0.00,,,0.00,Wunderground v.1.15,2013-05-07 14:50:00,
2013-05-07 10:55:00,64.2,56.5,30.02,East,90,3.0,-999.0,76,0.00,,,0.00,Wunderground v.1.15,2013-05-07 14:55:00,
2013-05-07 11:00:00,64.3,56.9,30.02,NE,45,3.0,-999.0,77,0.00,,,0.00,Wunderground v.1.15,2013-05-07 15:00:00,
2013-05-07 11:05:00,64.6,57.2,30.02,ENE,68,2.0,-999.0,77,0.00,,,0.00,Wunderground v.1.15,2013-05-07 15:05:00,
2013-05-07 11:10:00,64.6,57.6,30.02,NE,45,3.0,-999.0,78,0.00,,,0.00,Wunderground v.1.15,2013-05-07 15:10:00,
2013-05-07 11:15:00,64.5,57.1,30.02,NNE,23,3.0,-999.0,77,0.00,,,0.00,Wunderground v.1.15,2013-05-07 15:15:00,
2013-05-07 11:20:00,64.5,57.1,30.02,NNE,23,3.0,-999.0,77,0.00,,,0.00,Wunderground v.1.15,2013-05-07 15:20:00,
2013-05-07 11:25:00,64.5,57.5,30.02,East,90,3.0,-999.0,78,0.00,,,0.00,Wunderground v.1.15,2013-05-07 15:25:00,
2013-05-07 11:30:00,64.4,57.4,30.02,NE,45,4.0,-999.0,78,0.00,,,0.00,Wunderground v.1.15,2013-05-07 15:30:00,
2013-05-07 11:35:00,64.9,57.9,30.02,ENE,57,3.0,7.0,78,0.00,,,0.00,Wunderground v.1.15,2013-05-07 15:35:00,
2013-05-07 11:40:00,65.2,57.4,30.02,East,94,2.0,7.0,76,0.00,,,0.00,Wunderground v.1.15,2013-05-07 15:40:00,
2013-05-07 11:45:00,65.2,57.4,30.02,NNE,32,3.0,7.0,76,0.00,,,0.00,Wunderground v.1.15,2013-05-07 15:45:00,
2013-05-07 11:50:00,65.0,58.0,30.02,ESE,121,3.0,3.0,78,0.00,,,0.00,Wunderground v.1.15,2013-05-07 15:50:00,
2013-05-07 11:55:00,65.3,57.9,30.02,ESE,115,3.0,4.0,77,0.00,,,0.00,Wunderground v.1.15,2013-05-07 15:55:00,
2013-05-07 12:00:00,65.5,57.7,30.02,ESE,103,3.0,3.0,76,0.00,,,0.00,Wunderground v.1.15,2013-05-07 16:00:00,
2013-05-07 12:05:00,65.5,57.7,30.03,ESE,113,4.0,-999.0,76,0.00,,,0.00,Wunderground v.1.15,2013-05-07 16:05:00,
2013-05-07 12:10:00,65.2,57.4,30.03,East,79,4.0,9.0,76,0.00,,,0.00,Wunderground v.1.15,2013-05-07 16:10:00,
2013-05-07 12:15:00,64.8,57.8,30.03,ENE,69,4.0,9.0,78,0.00,,,0.00,Wunderground v.1.15,2013-05-07 16:15:00,
2013-05-07 12:20:00,64.8,58.5,30.03,NE,45,3.0,-999.0,80,0.00,,,0.00,Wunderground v.1.15,2013-05-07 16:20:00,
2013-05-07 12:25:00,64.9,58.2,30.03,ESE,122,3.0,5.0,79,0.00,,,0.00,Wunderground v.1.15,2013-05-07 16:25:00,
2013-05-07 12:30:00,64.7,57.7,30.03,NE,43,4.0,4.0,78,0.00,,,0.00,Wunderground v.1.15,2013-05-07 16:30:00,
2013-05-07 12:35:00,64.8,57.8,30.03,NNE,31,5.0,5.0,78,0.00,,,0.00,Wunderground v.1.15,2013-05-07 16:35:00,
2013-05-07 12:40:00,64.9,57.9,30.03,NE,44,4.0,4.0,78,0.00,,,0.00,Wunderground v.1.15,2013-05-07 16:40:00,
2013-05-07 12:50:00,65.4,58.7,30.03,NE,56,3.0,3.0,79,0.00,,,0.00,Wunderground v.1.15,2013-05-07 16:50:00,
2013-05-07 13:00:00,64.8,58.1,30.03,ESE,110,5.0,5.0,79,0.00,,,0.00,Wunderground v.1.15,2013-05-07 17:00:00,
2013-05-07 13:10:00,64.7,58.0,30.03,NNE,33,4.0,4.0,79,0.00,,,0.00,Wunderground v.1.15,2013-05-07 17:10:00,
2013-05-07 13:20:00,65.0,58.3,30.02,NNE,22,3.0,3.0,79,0.00,,,0.00,Wunderground v.1.15,2013-05-07 17:20:00,
2013-05-07 13:25:00,65.1,58.1,30.02,NNE,25,3.0,4.0,78,0.00,,,0.00,Wunderground v.1.15,2013-05-07 17:25:00,
2013-05-07 13:30:00,65.2,58.2,30.02,West,259,3.0,3.0,78,0.00,,,0.00,Wunderground v.1.15,2013-05-07 17:30:00,
2013-05-07 13:35:00,65.2,58.2,30.02,NNE,13,3.0,7.0,78,0.00,,,0.00,Wunderground v.1.15,2013-05-07 17:35:00,
2013-05-07 13:40:00,65.1,58.1,30.02,NNE,29,4.0,4.0,78,0.00,,,0.00,Wunderground v.1.15,2013-05-07 17:40:00,
2013-05-07 13:45:00,65.2,57.8,30.02,NNE,28,4.0,4.0,77,0.00,,,0.00,Wunderground v.1.15,2013-05-07 17:45:00,
2013-05-07 13:55:00,65.4,57.6,30.02,ESE,120,3.0,3.0,76,0.00,,,0.00,Wunderground v.1.15,2013-05-07 17:55:00,
2013-05-07 14:05:00,66.2,58.8,30.02,South,188,3.0,5.0,77,0.00,,,0.00,Wunderground v.1.15,2013-05-07 18:05:00,
2013-05-07 14:10:00,66.7,58.1,30.02,SE,132,3.0,3.0,74,0.00,,,0.00,Wunderground v.1.15,2013-05-07 18:10:00,
2013-05-07 14:15:00,66.6,58.4,30.01,NE,44,4.0,5.0,75,0.00,,,0.00,Wunderground v.1.15,2013-05-07 18:15:00,
2013-05-07 14:20:00,66.8,58.2,30.01,ESE,119,3.0,3.0,74,0.00,,,0.00,Wunderground v.1.15,2013-05-07 18:20:00,
2013-05-07 14:25:00,67.1,58.5,30.01,NNE,27,2.0,3.0,74,0.00,,,0.00,Wunderground v.1.15,2013-05-07 18:25:00,
2013-05-07 14:30:00,66.8,57.9,30.01,SE,129,3.0,3.0,73,0.00,,,0.00,Wunderground v.1.15,2013-05-07 18:30:00,
2013-05-07 14:35:00,66.5,58.0,30.01,NNE,12,4.0,7.0,74,0.00,,,0.00,Wunderground v.1.15,2013-05-07 18:35:00,
2013-05-07 14:40:00,66.3,57.8,30.01,NE,49,4.0,4.0,74,0.00,,,0.00,Wunderground v.1.15,2013-05-07 18:40:00,
2013-05-07 14:50:00,67.3,58.7,30.00,East,82,3.0,5.0,74,0.00,,,0.00,Wunderground v.1.15,2013-05-07 18:50:00,
2013-05-07 14:55:00,67.9,58.5,30.00,NE,53,3.0,6.0,72,0.00,,,0.00,Wunderground v.1.15,2013-05-07 18:55:00,
2013-05-07 15:00:00,68.5,58.3,30.00,ESE,106,3.0,4.0,70,0.00,,,0.00,Wunderground v.1.15,2013-05-07 19:00:00,
2013-05-07 15:10:00,69.0,58.4,29.99,ESE,122,4.0,5.0,69,0.00,,,0.00,Wunderground v.1.15,2013-05-07 19:10:00,
2013-05-07 15:15:00,69.1,58.5,29.99,NE,37,4.0,5.0,69,0.00,,,0.00,Wunderground v.1.15,2013-05-07 19:15:00,
2013-05-07 15:20:00,69.5,58.5,29.99,South,191,2.0,2.0,68,0.00,,,0.00,Wunderground v.1.15,2013-05-07 19:20:00,
2013-05-07 15:25:00,69.9,58.9,29.99,ENE,77,2.0,2.0,68,0.00,,,0.00,Wunderground v.1.15,2013-05-07 19:25:00,
2013-05-07 15:30:00,70.2,58.7,29.99,NNE,20,2.0,2.0,67,0.00,,,0.00,Wunderground v.1.15,2013-05-07 19:30:00,
2013-05-07 15:35:00,70.1,58.6,29.99,NE,51,2.0,4.0,67,0.00,,,0.00,Wunderground v.1.15,2013-05-07 19:35:00,
2013-05-07 15:40:00,69.4,57.5,29.98,ENE,69,2.0,2.0,66,0.00,,,0.00,Wunderground v.1.15,2013-05-07 19:40:00,
2013-05-07 15:45:00,68.8,57.0,29.98,ENE,65,2.0,2.0,66,0.00,,,0.00,Wunderground v.1.15,2013-05-07 19:45:00,
2013-05-07 15:55:00,68.1,56.7,29.98,NNE,25,1.0,2.0,67,0.00,,,0.00,Wunderground v.1.15,2013-05-07 19:55:00,
2013-05-07 16:00:00,68.1,57.1,29.98,SSW,211,1.0,1.0,68,0.00,,,0.00,Wunderground v.1.15,2013-05-07 20:00:00,
2013-05-07 16:10:00,68.8,57.0,29.98,SSE,153,1.0,1.0,66,0.00,,,0.00,Wunderground v.1.15,2013-05-07 20:10:00,
2013-05-07 16:20:00,69.3,57.5,29.98,NE,51,2.0,3.0,66,0.00,,,0.00,Wunderground v.1.15,2013-05-07 20:20:00,
2013-05-07 16:25:00,69.7,58.3,29.97,North,4,2.0,3.0,67,0.00,,,0.00,Wunderground v.1.15,2013-05-07 20:25:00,
2013-05-07 16:30:00,69.8,57.5,29.97,NNE,23,2.0,2.0,65,0.00,,,0.00,Wunderground v.1.15,2013-05-07 20:30:00,
2013-05-07 16:35:00,69.7,57.8,29.97,SSW,198,2.0,2.0,66,0.00,,,0.00,Wunderground v.1.15,2013-05-07 20:35:00,
2013-05-07 16:40:00,69.4,57.1,29.97,ESE,114,2.0,2.0,65,0.00,,,0.00,Wunderground v.1.15,2013-05-07 20:40:00,
2013-05-07 16:45:00,69.3,57.5,29.98,NE,36,2.0,2.0,66,0.00,,,0.00,Wunderground v.1.15,2013-05-07 20:45:00,
2013-05-07 16:50:00,69.0,57.6,29.97,North,4,1.0,2.0,67,0.00,,,0.00,Wunderground v.1.15,2013-05-07 20:50:00,
2013-05-07 17:00:00,68.5,57.9,29.98,SSE,167,1.0,4.0,69,0.00,,,0.00,Wunderground v.1.15,2013-05-07 21:00:00,
2013-05-07 17:10:00,65.5,57.7,29.98,South,188,6.0,6.0,76,0.00,,,0.00,Wunderground v.1.15,2013-05-07 21:10:00,
2013-05-07 17:15:00,64.4,58.1,29.98,SSE,158,4.0,6.0,80,0.00,,,0.00,Wunderground v.1.15,2013-05-07 21:15:00,
2013-05-07 17:20:00,63.7,58.1,29.98,SSW,200,3.0,4.0,82,0.00,,,0.00,Wunderground v.1.15,2013-05-07 21:20:00,
2013-05-07 17:30:00,63.2,58.3,29.98,SSW,204,3.0,3.0,84,0.00,,,0.00,Wunderground v.1.15,2013-05-07 21:30:00,
2013-05-07 17:35:00,63.3,58.4,29.98,SW,224,2.0,3.0,84,0.00,,,0.00,Wunderground v.1.15,2013-05-07 21:35:00,
2013-05-07 17:40:00,63.4,58.5,29.98,SW,225,1.0,1.0,84,0.00,,,0.00,Wunderground v.1.15,2013-05-07 21:40:00,
2013-05-07 17:45:00,63.6,58.7,29.99,SSW,193,1.0,2.0,84,0.00,,,0.00,Wunderground v.1.15,2013-05-07 21:45:00,
2013-05-07 17:50:00,63.9,58.6,29.99,West,276,1.0,2.0,83,0.00,,,0.00,Wunderground v.1.15,2013-05-07 21:50:00,
2013-05-07 17:55:00,64.2,58.2,29.98,South,190,1.0,3.0,81,0.00,,,0.00,Wunderground v.1.15,2013-05-07 21:55:00,
2013-05-07 18:00:00,64.5,58.2,29.98,NNW,335,1.0,1.0,80,0.00,,,0.00,Wunderground v.1.15,2013-05-07 22:00:00,
2013-05-07 18:10:00,64.6,58.3,29.98,NE,41,2.0,4.0,80,0.00,,,0.00,Wunderground v.1.15,2013-05-07 22:10:00,
2013-05-07 18:15:00,63.9,57.3,29.98,ESE,105,2.0,4.0,79,0.00,,,0.00,Wunderground v.1.15,2013-05-07 22:15:00,
2013-05-07 18:20:00,63.3,56.7,29.98,ENE,71,2.0,2.0,79,0.00,,,0.00,Wunderground v.1.15,2013-05-07 22:20:00,
2013-05-07 18:25:00,63.0,56.7,29.98,NNE,25,1.0,2.0,80,0.00,,,0.00,Wunderground v.1.15,2013-05-07 22:25:00,
2013-05-07 18:30:00,62.8,56.9,29.98,SE,137,0.0,1.0,81,0.00,,,0.00,Wunderground v.1.15,2013-05-07 22:30:00,
2013-05-07 18:40:00,62.8,56.5,29.98,South,177,1.0,1.0,80,0.00,,,0.00,Wunderground v.1.15,2013-05-07 22:40:00,
2013-05-07 18:45:00,62.8,56.5,29.98,NNE,12,1.0,1.0,80,0.00,,,0.00,Wunderground v.1.15,2013-05-07 22:45:00,
2013-05-07 18:55:00,62.9,56.3,29.98,East,81,1.0,1.0,79,0.00,,,0.00,Wunderground v.1.15,2013-05-07 22:55:00,
2013-05-07 19:00:00,63.0,56.4,29.98,SE,142,1.0,1.0,79,0.00,,,0.00,Wunderground v.1.15,2013-05-07 23:00:00,
2013-05-07 19:10:00,63.1,56.5,29.99,East,84,0.0,3.0,79,0.00,,,0.00,Wunderground v.1.15,2013-05-07 23:10:00,
2013-05-07 19:15:00,63.1,56.5,29.99,NE,34,1.0,4.0,79,0.00,,,0.00,Wunderground v.1.15,2013-05-07 23:15:00,
2013-05-07 19:20:00,63.0,56.4,29.99,ESE,104,2.0,2.0,79,0.00,,,0.00,Wunderground v.1.15,2013-05-07 23:20:00,
2013-05-07 19:30:00,63.0,56.4,29.99,NE,46,1.0,1.0,79,0.00,,,0.00,Wunderground v.1.15,2013-05-07 23:30:00,
2013-05-07 19:35:00,62.9,56.3,29.99,SE,136,1.0,1.0,79,0.00,,,0.00,Wunderground v.1.15,2013-05-07 23:35:00,
2013-05-07 19:40:00,62.8,56.2,29.99,NE,40,1.0,2.0,79,0.00,,,0.00,Wunderground v.1.15,2013-05-07 23:40:00,
2013-05-07 19:45:00,62.7,56.1,29.99,NE,39,1.0,2.0,79,0.00,,,0.00,Wunderground v.1.15,2013-05-07 23:45:00,
2013-05-07 19:50:00,62.6,56.0,29.99,NE,54,1.0,1.0,79,0.00,,,0.00,Wunderground v.1.15,2013-05-07 23:50:00,
2013-05-07 20:05:00,62.1,55.9,29.99,NNE,33,0.0,1.0,80,0.00,,,0.00,Wunderground v.1.15,2013-05-08 00:05:00,
2013-05-07 20:10:00,61.8,55.9,29.99,NNE,33,0.0,3.0,81,0.00,,,0.00,Wunderground v.1.15,2013-05-08 00:10:00,
2013-05-07 20:15:00,61.4,56.2,29.99,NNE,33,0.0,3.0,83,0.00,,,0.00,Wunderground v.1.15,2013-05-08 00:15:00,
2013-05-07 20:20:00,61.0,56.1,29.99,NNE,33,1.0,1.0,84,0.00,,,0.00,Wunderground v.1.15,2013-05-08 00:20:00,
2013-05-07 20:25:00,60.7,56.2,29.99,NNE,33,0.0,3.0,85,0.00,,,0.00,Wunderground v.1.15,2013-05-08 00:25:00,
2013-05-07 20:30:00,60.5,56.3,29.99,NNE,33,0.0,3.0,86,0.00,,,0.00,Wunderground v.1.15,2013-05-08 00:30:00,
2013-05-07 20:35:00,60.2,56.0,29.99,NNE,33,0.0,3.0,86,0.00,,,0.00,Wunderground v.1.15,2013-05-08 00:35:00,
2013-05-07 20:45:00,59.9,56.0,29.99,NNE,33,1.0,3.0,87,0.00,,,0.00,Wunderground v.1.15,2013-05-08 00:45:00,
2013-05-07 20:55:00,59.6,56.0,29.99,NNE,33,0.0,0.0,88,0.00,,,0.00,Wunderground v.1.15,2013-05-08 00:55:00,
2013-05-07 21:00:00,59.5,55.9,29.99,NNE,33,0.0,0.0,88,0.00,,,0.00,Wunderground v.1.15,2013-05-08 01:00:00,
2013-05-07 21:10:00,59.2,56.0,29.99,NNE,33,0.0,0.0,89,0.00,,,0.00,Wunderground v.1.15,2013-05-08 01:10:00,
2013-05-07 21:15:00,59.2,56.0,29.99,NNE,33,0.0,0.0,89,0.00,,,0.00,Wunderground v.1.15,2013-05-08 01:15:00,
2013-05-07 21:20:00,59.1,55.9,29.99,NNE,33,0.0,0.0,89,0.00,,,0.00,Wunderground v.1.15,2013-05-08 01:20:00,
2013-05-07 21:25:00,59.0,55.8,29.99,NNE,33,0.0,0.0,89,0.00,,,0.00,Wunderground v.1.15,2013-05-08 01:25:00,
2013-05-07 21:30:00,58.8,55.6,29.99,NNE,33,0.0,0.0,89,0.00,,,0.00,Wunderground v.1.15,2013-05-08 01:30:00,
2013-05-07 21:35:00,58.6,55.7,29.99,NNE,33,0.0,0.0,90,0.00,,,0.00,Wunderground v.1.15,2013-05-08 01:35:00,
2013-05-07 21:40:00,58.4,55.5,29.99,NNE,33,0.0,0.0,90,0.00,,,0.00,Wunderground v.1.15,2013-05-08 01:40:00,
2013-05-07 21:50:00,58.0,55.1,29.99,NNE,33,0.0,0.0,90,0.00,,,0.00,Wunderground v.1.15,2013-05-08 01:50:00,
2013-05-07 22:00:00,57.4,54.5,29.99,NNE,33,0.0,0.0,90,0.00,,,0.00,Wunderground v.1.15,2013-05-08 02:00:00,
2013-05-07 22:10:00,57.0,54.4,29.99,NNE,33,0.0,0.0,91,0.00,,,0.00,Wunderground v.1.15,2013-05-08 02:10:00,
2013-05-07 22:15:00,57.0,54.7,29.99,NNE,33,0.0,0.0,92,0.00,,,0.00,Wunderground v.1.15,2013-05-08 02:15:00,
2013-05-07 22:20:00,57.0,54.7,30.00,NNE,33,0.0,0.0,92,0.00,,,0.00,Wunderground v.1.15,2013-05-08 02:20:00,
2013-05-07 22:25:00,57.1,54.8,29.99,NNE,33,0.0,0.0,92,0.00,,,0.00,Wunderground v.1.15,2013-05-08 02:25:00,
2013-05-07 22:30:00,57.1,54.8,29.99,NNE,33,0.0,0.0,92,0.00,,,0.00,Wunderground v.1.15,2013-05-08 02:30:00,
2013-05-07 22:40:00,57.3,55.3,30.00,NNE,33,0.0,0.0,93,0.00,,,0.00,Wunderground v.1.15,2013-05-08 02:40:00,
2013-05-07 22:45:00,57.4,55.4,29.99,NNE,33,0.0,0.0,93,0.00,,,0.00,Wunderground v.1.15,2013-05-08 02:45:00,
2013-05-07 22:50:00,57.4,55.4,30.00,NNE,33,0.0,0.0,93,0.00,,,0.00,Wunderground v.1.15,2013-05-08 02:50:00,
2013-05-07 22:55:00,57.4,55.1,30.00,NNE,33,0.0,0.0,92,0.00,,,0.00,Wunderground v.1.15,2013-05-08 02:55:00,
2013-05-07 23:00:00,57.3,55.3,29.99,NNE,33,0.0,0.0,93,0.00,,,0.00,Wunderground v.1.15,2013-05-08 03:00:00,
2013-05-07 23:10:00,57.5,55.5,29.99,NNE,29,0.0,0.0,93,0.00,,,0.00,Wunderground v.1.15,2013-05-08 03:10:00,
2013-05-07 23:15:00,57.6,55.6,29.99,NNE,31,0.0,0.0,93,0.00,,,0.00,Wunderground v.1.15,2013-05-08 03:15:00,
2013-05-07 23:20:00,57.9,55.6,29.99,NNE,32,0.0,0.0,92,0.00,,,0.00,Wunderground v.1.15,2013-05-08 03:20:00,
2013-05-07 23:25:00,58.0,55.7,29.99,NNE,31,0.0,0.0,92,0.00,,,0.00,Wunderground v.1.15,2013-05-08 03:25:00,
2013-05-07 23:30:00,58.1,55.5,29.99,NNE,31,0.0,0.0,91,0.00,,,0.00,Wunderground v.1.15,2013-05-08 03:30:00,
2013-05-07 23:35:00,58.3,55.7,29.99,NNE,25,0.0,0.0,91,0.00,,,0.00,Wunderground v.1.15,2013-05-08 03:35:00,
2013-05-07 23:45:00,58.2,55.6,29.99,NNE,25,0.0,0.0,91,0.00,,,0.00,Wunderground v.1.15,2013-05-08 03:45:00,
2013-05-07 23:50:00,58.1,55.5,29.99,NNE,25,0.0,0.0,91,0.00,,,0.00,Wunderground v.1.15,2013-05-08 03:50:00,
2013-05-07 23:55:00,58.0,55.4,29.99,NNE,25,0.0,0.0,91,0.00,,,0.00,Wunderground v.1.15,2013-05-08 03:55:00,